sat.trackr.live / text

‹ back to catalog

STARLINK-33880

NORAD 63686 · 2025-085Y

PAYLOAD ACTIVE UNKNOWN

§ Identity

Operator
Country
US
Launch date
2025-04-28
Launch site
AFETR
Launch vehicle
Mass (kg)
RCS (m²)

Purposes: comms

External: N2YO · Heavens-Above · Gunter

§ Orbital elements

Epoch: 2026-05-24T16:59:27.380256Z

Period
94.27 min
Inclination
43.0003°
Eccentricity
0.0000811
Mean motion
15.27593601 rev/d
Perigee alt
482.5 km
Apogee alt
483.6 km
Semi-major
6,861.1 km
B*
4.9239e-4
RAAN
321.8043°
Arg perigee
272.7529°
Mean anomaly
87.3230°
Rev number
6,060

§ Raw data

STARLINK-338801 63686U 25085Y   26144.70795579  .00013318  00000+0  49239-3 0  99902 63686  43.0003 321.8043 0000811 272.7529  87.3230 15.27593601 60600

JSON: /api/v1/satellites/63686 · /tle

For live sub-satellite position, see the globe view (requires WebGL).

§ Visibility from observer

Set your observer location to see the next 7 days of passes ≥ 10°. The values pass through the URL so the page stays shareable.

No JS? Fill the form by hand. The geolocation button needs JavaScript.